When you browse on this site, cookies collect data to enhance your experience and personalize the content and advertising you see.
Visit our Privacy Policy to learn more. By continuing to use the site, you agree to this use of cookies and data.
  • en France
  • Liste des pays
  • À 7 jours
  • Température de l'eau
  • Carte météo
  • Widgets météo
  • user-avatar
    Se connecter

    Météo par heure à Samroung

    Ce jour, 4 Avril, Samedi

    Heure Température Précipitation Vent Pression Humidité
    00:00 +28°C° 0 mm 1 m/s 756 mmHg 84%
    01:00 +28°C° 0 mm 1 m/s 756 mmHg 86%
    02:00 +28°C° 0.3 mm 1 m/s 756 mmHg 86%
    03:00 +28°C° 0.3 mm 1 m/s 756 mmHg 87%
    04:00 +26°C° 0.3 mm 0 m/s 756 mmHg 88%
    05:00 +28°C° 0.2 mm 1 m/s 756 mmHg 87%
    06:00 +28°C° 0.2 mm 1 m/s 757 mmHg 86%
    07:00 +29°C° 0 mm 1 m/s 757 mmHg 82%
    08:00 +31°C° 0 mm 2 m/s 757 mmHg 70%
    09:00 +35°C° 0 mm 2 m/s 758 mmHg 59%
    10:00 +37°C° 0 mm 2 m/s 758 mmHg 47%
    11:00 +37°C° 0 mm 2 m/s 757 mmHg 47%
    12:00 +37°C° 0 mm 2 m/s 756 mmHg 47%
    13:00 +37°C° 0 mm 3 m/s 756 mmHg 46%
    14:00 +38°C° 0 mm 3 m/s 755 mmHg 45%
    15:00 +38°C° 0 mm 2 m/s 755 mmHg 44%
    16:00 +38°C° 0 mm 2 m/s 754 mmHg 44%
    17:00 +36°C° 0 mm 2 m/s 754 mmHg 53%
    18:00 +34°C° 0 mm 2 m/s 755 mmHg 62%
    19:00 +31°C° 0 mm 1 m/s 755 mmHg 71%
    20:00 +30°C° 0.1 mm 1 m/s 756 mmHg 74%
    21:00 +30°C° 0.1 mm 1 m/s 756 mmHg 78%
    22:00 +29°C° 0.1 mm 1 m/s 757 mmHg 82%
    23:00 +29°C° 0.1 mm 1 m/s 757 mmHg 83%

    Demain, 5 Avril, Dimanche

    Heure Température Précipitation Vent Pression Humidité
    00:00 +29°C° 0.1 mm 1 m/s 757 mmHg 84%
    01:00 +29°C° 0.1 mm 1 m/s 756 mmHg 85%
    02:00 +28°C° 0.3 mm 2 m/s 756 mmHg 84%
    03:00 +28°C° 0.3 mm 2 m/s 756 mmHg 84%
    04:00 +28°C° 0.3 mm 3 m/s 756 mmHg 84%
    05:00 +28°C° 0 mm 3 m/s 756 mmHg 81%
    06:00 +28°C° 0 mm 3 m/s 757 mmHg 79%
    07:00 +28°C° 0 mm 3 m/s 757 mmHg 76%
    08:00 +30°C° 0 mm 3 m/s 757 mmHg 67%
    09:00 +33°C° 0 mm 3 m/s 758 mmHg 58%
    10:00 +36°C° 0 mm 4 m/s 758 mmHg 49%
    11:00 +37°C° 0 mm 3 m/s 757 mmHg 45%
    12:00 +39°C° 0 mm 3 m/s 757 mmHg 41%
    13:00 +40°C° 0 mm 2 m/s 756 mmHg 37%
    14:00 +40°C° 0 mm 2 m/s 755 mmHg 39%
    15:00 +39°C° 0 mm 2 m/s 754 mmHg 41%
    16:00 +38°C° 0 mm 2 m/s 753 mmHg 42%
    17:00 +36°C° 0 mm 3 m/s 754 mmHg 54%
    18:00 +34°C° 0 mm 3 m/s 754 mmHg 65%
    19:00 +30°C° 0 mm 3 m/s 755 mmHg 77%
    20:00 +30°C° 0.3 mm 3 m/s 756 mmHg 80%
    21:00 +29°C° 0.3 mm 2 m/s 756 mmHg 83%
    22:00 +29°C° 0.3 mm 2 m/s 757 mmHg 87%
    23:00 +28°C° 0.2 mm 2 m/s 757 mmHg 87%

    Après-demain, 6 Avril, Lundi

    Heure Température Précipitation Vent Pression Humidité
    00:00 +28°C° 0.2 mm 2 m/s 757 mmHg 88%
    01:00 +28°C° 0.2 mm 1 m/s 757 mmHg 88%
    02:00 +28°C° 0.1 mm 2 m/s 756 mmHg 89%
    03:00 +28°C° 0.1 mm 2 m/s 756 mmHg 90%
    04:00 +27°C° 0.1 mm 2 m/s 756 mmHg 91%
    05:00 +28°C° 0.2 mm 2 m/s 756 mmHg 89%
    06:00 +28°C° 0.2 mm 2 m/s 757 mmHg 87%
    07:00 +28°C° 0.2 mm 2 m/s 757 mmHg 85%
    08:00 +31°C° 0 mm 2 m/s 757 mmHg 72%
    09:00 +35°C° 0 mm 2 m/s 758 mmHg 60%
    10:00 +38°C° 0 mm 2 m/s 758 mmHg 47%
    11:00 +38°C° 0 mm 2 m/s 757 mmHg 48%
    12:00 +38°C° 0 mm 2 m/s 757 mmHg 48%
    13:00 +37°C° 0 mm 3 m/s 756 mmHg 48%
    14:00 +37°C° 0.2 mm 3 m/s 755 mmHg 51%
    15:00 +36°C° 0.2 mm 3 m/s 754 mmHg 55%
    16:00 +35°C° 0.2 mm 3 m/s 754 mmHg 58%
    17:00 +34°C° 0.2 mm 3 m/s 754 mmHg 66%
    18:00 +31°C° 0.2 mm 3 m/s 754 mmHg 74%
    19:00 +29°C° 0.2 mm 2 m/s 755 mmHg 82%
    20:00 +29°C° 0 mm 2 m/s 755 mmHg 84%
    21:00 +29°C° 0 mm 2 m/s 756 mmHg 86%
    22:00 +28°C° 0 mm 2 m/s 756 mmHg 88%
    23:00 +28°C° 0 mm 1 m/s 756 mmHg 89%

    7 Avril, Mardi

    Heure Température Précipitation Vent Pression Humidité
    00:00 +28°C° 0 mm 1 m/s 756 mmHg 89%
    01:00 +28°C° 0 mm 1 m/s 756 mmHg 90%
    02:00 +28°C° 0 mm 1 m/s 756 mmHg 90%
    03:00 +27°C° 0 mm 1 m/s 755 mmHg 91%
    04:00 +27°C° 0 mm 1 m/s 755 mmHg 91%
    05:00 +28°C° 0.2 mm 1 m/s 755 mmHg 89%
    06:00 +28°C° 0.2 mm 2 m/s 756 mmHg 88%
    07:00 +29°C° 0.2 mm 2 m/s 756 mmHg 87%
    08:00 +31°C° 0.2 mm 2 m/s 757 mmHg 79%
    09:00 +32°C° 0.2 mm 2 m/s 757 mmHg 70%
    10:00 +35°C° 0.2 mm 3 m/s 757 mmHg 62%
    11:00 +36°C° 0.9 mm 3 m/s 756 mmHg 61%
    12:00 +36°C° 0.9 mm 3 m/s 756 mmHg 59%
    13:00 +36°C° 0.9 mm 3 m/s 755 mmHg 58%
    14:00 +35°C° 1.8 mm 3 m/s 755 mmHg 63%
    15:00 +34°C° 1.8 mm 3 m/s 754 mmHg 67%
    16:00 +33°C° 1.8 mm 3 m/s 754 mmHg 72%
    17:00 +31°C° 0.6 mm 3 m/s 754 mmHg 77%
    18:00 +30°C° 0.6 mm 2 m/s 754 mmHg 82%
    19:00 +29°C° 0.6 mm 2 m/s 754 mmHg 87%
    20:00 +29°C° 0.3 mm 2 m/s 755 mmHg 88%
    21:00 +29°C° 0.3 mm 2 m/s 755 mmHg 89%
    22:00 +28°C° 0.3 mm 1 m/s 756 mmHg 90%
    23:00 +28°C° 1 mm 1 m/s 756 mmHg 91%

    8 Avril, Mercredi

    Heure Température Précipitation Vent Pression Humidité
    00:00 +28°C° 1 mm 1 m/s 755 mmHg 91%
    01:00 +28°C° 1 mm 1 m/s 755 mmHg 91%
    02:00 +28°C° 0.4 mm 1 m/s 755 mmHg 91%
    03:00 +28°C° 0.4 mm 1 m/s 755 mmHg 92%
    04:00 +28°C° 0.4 mm 1 m/s 754 mmHg 92%
    05:00 +28°C° 0.6 mm 1 m/s 755 mmHg 91%
    06:00 +28°C° 0.6 mm 1 m/s 755 mmHg 89%
    07:00 +29°C° 0.6 mm 1 m/s 756 mmHg 87%
    08:00 +30°C° 1.7 mm 1 m/s 756 mmHg 81%
    09:00 +32°C° 1.7 mm 2 m/s 757 mmHg 75%
    10:00 +34°C° 1.7 mm 2 m/s 757 mmHg 69%
    11:00 +34°C° 1.3 mm 2 m/s 756 mmHg 70%
    12:00 +34°C° 1.3 mm 2 m/s 756 mmHg 71%
    13:00 +34°C° 1.3 mm 3 m/s 755 mmHg 73%
    14:00 +33°C° 3 mm 3 m/s 755 mmHg 77%
    15:00 +31°C° 3 mm 3 m/s 754 mmHg 82%
    16:00 +30°C° 3 mm 2 m/s 754 mmHg 86%
    17:00 +29°C° 0.4 mm 2 m/s 754 mmHg 88%
    18:00 +29°C° 0.4 mm 2 m/s 754 mmHg 89%
    19:00 +28°C° 0.4 mm 2 m/s 755 mmHg 90%
    20:00 +28°C° 0.3 mm 2 m/s 755 mmHg 90%
    21:00 +28°C° 0.3 mm 1 m/s 756 mmHg 90%
    22:00 +28°C° 0.3 mm 1 m/s 757 mmHg 89%
    23:00 +27°C° 1.5 mm 1 m/s 756 mmHg 90%

    9 Avril, Jeudi

    Heure Température Précipitation Vent Pression Humidité
    00:00 +27°C° 1.5 mm 1 m/s 756 mmHg 91%
    01:00 +27°C° 1.5 mm 1 m/s 756 mmHg 91%
    02:00 +27°C° 0.5 mm 1 m/s 756 mmHg 92%
    03:00 +27°C° 0.5 mm 2 m/s 755 mmHg 92%
    04:00 +27°C° 0.5 mm 3 m/s 755 mmHg 93%
    05:00 +27°C° 0 mm 2 m/s 756 mmHg 91%
    06:00 +27°C° 0 mm 1 m/s 756 mmHg 90%
    07:00 +28°C° 0 mm 1 m/s 757 mmHg 89%
    08:00 +29°C° 0.7 mm 1 m/s 757 mmHg 84%
    09:00 +30°C° 0.7 mm 1 m/s 757 mmHg 80%
    10:00 +31°C° 0.7 mm 1 m/s 757 mmHg 75%
    11:00 +32°C° 0.1 mm 1 m/s 757 mmHg 70%
    12:00 +33°C° 0.1 mm 1 m/s 756 mmHg 64%
    13:00 +34°C° 0.1 mm 1 m/s 756 mmHg 58%
    14:00 +34°C° 0 mm 1 m/s 755 mmHg 61%
    15:00 +34°C° 0 mm 2 m/s 755 mmHg 63%
    16:00 +34°C° 0 mm 2 m/s 754 mmHg 66%
    17:00 +31°C° 0 mm 2 m/s 754 mmHg 72%
    18:00 +30°C° 0 mm 1 m/s 755 mmHg 78%
    19:00 +28°C° 0 mm 1 m/s 755 mmHg 85%
    20:00 +28°C° 0 mm 1 m/s 756 mmHg 85%
    21:00 +28°C° 0 mm 1 m/s 756 mmHg 86%
    22:00 +28°C° 0 mm 1 m/s 757 mmHg 87%
    23:00 +28°C° 0 mm 1 m/s 757 mmHg 87%
    Voir plus